Notices

What's New in latest Release from April 7th, 2021:

- Updated Glossary, including Speed of Maximum Gust, and Total Hourly Precipitation

- Updated national and regional climate services offices contacts and prices information

- Addition of station inventory lists for 1981-2010, 1971-2000, and 1961-1990 Normals.

If you haven't already, please take our survey and provide feedback about our website: https://eccc.sondage-survey.ca/f/LanguageSelection.aspx?s=442ca660-fcf1-47c0-95a9-59707d6fd709

Hourly Data Report for July 18, 2019

TORONTO CITY
ONTARIO
Current Station Operator: ECCC - MSC

43°40'00.000" N
79°24'00.000" W
112.50 m
6158355
71508
XTO

Download Data

Hourly Data (July 2019)
Hourly Data Report for July 18, 2019
TIME
LST
Temp Definition
°C
Dew Point Definition
°C
Rel Hum Definition
%
Precip. Amount Definition
mm

Wind Dir Definition
10's deg

Wind Spd Definition
km/h
Visibility Definition
km
Stn Press Definition
kPa
Hmdx Definition


Wind Chill Definition


Weather Definition


00:00 22.3 19.9 86 0.0       99.99 30   LegendNANA
01:00 22.3 19.8 86 0.0       99.99 30   LegendNANA
02:00 22.3 19.7 85 0.0       100.00 30   LegendNANA
03:00 21.9 19.6 87 0.0       100.01 29   LegendNANA
04:00 22.0 19.5 86 0.0       100.03 29   LegendNANA
05:00 22.0 19.5 86 0.0       100.05 29   LegendNANA
06:00 22.1 19.2 84 0.0       100.07 29   LegendNANA
07:00 21.8 17.9 78 0.0       100.08 28   LegendNANA
08:00 22.7 18.3 76 0.0       100.12 29   LegendNANA
09:00 22.6 17.2 72 0.0       100.06 28   LegendNANA
10:00 23.7 17.9 70 0.0       100.08 30   LegendNANA
11:00 23.8 17.7 69 0.0       100.04 30   LegendNANA
12:00 24.4 18.6 70 0.0       100.01 31   LegendNANA
13:00 26.1 18.5 63 0.0       100.03 32   LegendNANA
14:00 27.4 17.9 56 0.0       100.00 33   LegendNANA
15:00 27.7 18.7 58 0.0       99.90 34   LegendNANA
16:00 25.7 19.2 67 0.0       99.78 33   LegendNANA
17:00 24.9 19.0 70 0.0       99.69 32   LegendNANA
18:00 24.8 19.4 72 0.0       99.69 32   LegendNANA
19:00 24.5 19.2 72 0.0       99.67 31   LegendNANA
20:00 24.0 19.3 75 0.0       99.67 31   LegendNANA
21:00 24.0 19.8 78 0.0       99.71 31   LegendNANA
22:00 24.2 19.9 77 0.0       99.68 32   LegendNANA
23:00 23.8 20.5 82 0.0       99.60 32   LegendNANA

Notes on Data Quality.

Legend

  • E = Estimated
  • M = Missing
  • NA = Not Available*
  • [empty] = Indicates an unobserved value
Date modified: